Location: Neuvy Saint Sepulchre
(46.5953°N, 1.8122°E)
Time: 06:43:08
(UTC+01:00)

ISS - Pass Details

Date: 30 November 2023
Orbit: 416 x 417 km, 51.6° (Epoch: 01 December)

Event Time Altitude Azimuth Distance (km) Brightness Sun altitude
Rises 19:02:24 0° 296° (WNW) 2,362 0.9 -19.1°
Reaches altitude 10° 19:04:30 10° 298° (WNW) 1,496 -0.3 -19.4°
Enters shadow 19:07:41 69° 353° (N) 449 -3.8 -20.0°
